Wind_Speed
15 15 16 17 17 17 18 18 17 16 17 19 21 22 19 15 15 15 15 13 11 11 11 11 10 9 9 9 9 9 10 10 10 11 11 11 10 10 10 10 10 11
14 15 16 16 17 17 18 18 17 16 17 19 22 23 18 15 16 16 14 12 11 12 12 11 10 9 9 9 9 9 10 10 10 10 10 10 10 9 9 9 10 11
13 14 15 15 16 16 17 17 18 18 19 20 20 20 16 16 16 14 12 12 13 13 12 11 10 9 9 9 9 9 9 10 9 9 9 9 9 8 8 9 10 11
12 14 14 15 16 16 16 17 19 20 21 21 19 17 16 16 14 12 12 13 13 13 12 11 11 10 10 9 9 10 9 9 9 9 9 8 8 8 8 9 10 11
13 14 15 15 15 15 16 18 19 20 22 23 21 17 15 13 11 11 13 13 13 13 13 12 11 10 10 10 10 10 10 10 9 9 9 8 7 7 7 9 10 10
14 14 15 15 15 16 18 19 20 22 23 21 18 15 13 12 12 13 14 14 14 13 12 12 11 11 11 11 11 11 10 10 10 9 8 7 7 7 7 8 9 8
15 14 15 15 16 18 21 21 21 22 20 16 15 14 13 12 13 14 13 13 13 13 12 12 11 11 12 12 12 12 11 11 10 9 8 7 6 6 7 8 7 7
15 15 15 15 16 19 22 22 22 21 18 16 15 14 13 12 13 13 13 13 13 12 12 12 12 12 13 13 13 12 12 11 10 8 7 6 6 6 7 7 6 6
15 15 15 16 17 21 23 23 22 20 18 16 14 13 13 13 13 13 13 13 13 12 12 12 13 14 14 14 14 13 12 11 9 8 7 6 6 6 6 6 5 6
15 15 16 17 20 23 24 23 21 20 19 17 15 14 15 14 14 14 14 13 13 13 13 14 14 15 15 15 14 13 12 11 9 8 7 6 6 7 6 5 5 5
15 16 17 19 22 25 25 24 21 21 20 18 16 15 15 14 14 14 13 13 13 14 14 15 16 16 16 15 15 14 12 11 9 8 7 7 7 7 6 5 4 4
15 16 18 22 25 26 26 26 23 22 21 18 16 16 15 14 14 13 13 14 14 15 15 16 16 16 16 16 15 14 12 11 9 8 8 7 7 7 5 4 3 3
16 18 20 23 26 26 27 27 26 23 21 18 17 17 15 14 14 14 14 14 15 15 16 16 16 17 16 16 15 14 13 11 10 9 8 8 8 7 5 3 3 3
16 20 22 23 25 26 28 29 28 24 21 20 18 17 15 15 15 14 15 15 15 15 16 16 17 17 17 16 15 14 13 11 10 10 9 9 8 7 4 3 2 2
17 21 23 24 25 26 28 29 28 25 23 22 20 18 16 15 15 15 16 16 16 16 17 17 18 17 17 16 15 14 13 12 12 11 10 9 8 6 4 3 2 2
18 21 23 25 25 25 27 28 26 25 25 24 22 20 18 16 16 16 16 17 17 17 17 18 18 17 17 16 16 15 14 13 13 12 11 10 8 6 4 4 3 2
19 21 23 25 26 26 27 26 26 27 27 26 24 22 20 19 18 18 18 19 19 19 19 19 18 18 18 17 16 16 15 15 14 12 11 10 8 7 5 5 4 3
20 21 22 24 26 27 27 27 27 28 29 28 27 25 24 23 22 21 21 21 20 20 20 19 19 19 19 19 18 17 17 16 15 13 12 10 9 7 6 6 5 4
21 21 21 22 24 26 27 27 28 28 28 28 28 28 27 26 25 24 23 23 22 22 21 20 21 21 21 20 20 20 19 17 15 13 12 11 9 8 7 7 6 6
21 21 22 22 24 25 26 27 28 28 28 28 28 28 27 27 26 25 24 24 23 22 22 22 22 22 22 22 22 22 20 17 15 13 12 11 10 9 9 9 8 7
22 22 22 23 24 25 26 28 29 29 29 28 28 27 27 27 26 25 25 25 24 23 23 23 24 24 24 24 24 23 20 17 15 14 13 11 11 11 11 10 9 9
22 22 22 22 22 24 26 28 29 29 29 29 28 28 27 27 26 26 26 25 24 24 23 24 25 26 26 27 26 23 19 17 16 14 13 12 12 12 12 11 11 10
23 22 22 22 22 23 25 27 28 28 29 29 28 28 27 27 26 26 25 24 24 23 23 25 26 26 27 29 27 23 21 19 17 15 14 14 15 15 14 13 12 12
24 23 22 22 23 24 25 26 27 28 28 29 29 28 28 28 27 25 24 24 23 21 22 25 26 26 27 29 28 24 21 19 18 16 15 16 17 16 15 14 14 13
24 24 23 24 24 25 25 26 27 28 28 29 29 29 29 28 27 26 25 23 20 20 23 26 27 27 28 29 28 24 21 21 21 18 17 18 18 17 16 16 15 14
25 25 25 25 26 26 27 27 27 28 29 29 30 31 31 31 30 27 25 22 21 23 25 27 27 29 29 29 28 24 23 24 21 18 18 20 19 18 17 17 16 15
Wind_Direction
218 223 229 235 237 239 241 240 237 233 227 220 205 189 185 188 190 200 212 218 223 221 221 227 228 228 227 226 231 235 241 250 256 263 271 278 284 290 299 309 317 324
221 231 237 240 241 242 241 236 232 225 213 205 194 180 175 186 199 211 219 220 221 220 220 224 224 224 227 228 234 241 246 254 260 267 273 279 286 294 304 312 321 328
226 234 237 241 242 242 240 232 225 216 200 186 180 175 180 198 208 214 219 218 218 219 218 220 222 224 228 233 240 246 253 259 265 271 276 281 289 298 307 317 325 329
229 233 234 237 237 236 233 225 217 207 192 180 176 182 194 202 207 214 219 218 217 217 217 219 223 228 234 241 248 253 260 266 270 274 277 283 292 300 311 321 327 328
226 227 228 230 230 229 222 215 209 198 188 178 171 181 196 200 211 224 224 221 218 217 218 222 228 234 242 249 255 261 267 270 272 274 277 284 293 302 315 323 324 327
219 222 227 225 220 214 209 208 204 190 181 173 166 177 197 207 222 230 226 222 220 220 223 228 235 242 249 255 261 266 270 271 272 271 276 283 292 304 316 321 322 329
218 224 226 221 212 203 200 197 189 177 173 173 177 190 204 215 227 228 224 224 224 226 230 234 240 247 253 259 264 269 270 269 268 268 274 282 291 306 314 318 324 332
221 225 221 218 208 197 191 182 172 170 177 185 195 206 213 221 227 226 226 228 229 232 234 237 244 251 257 262 266 268 267 264 263 265 271 279 291 304 310 315 326 334
226 227 221 215 201 190 186 176 169 175 186 193 204 215 220 223 224 224 227 228 229 233 236 241 249 255 260 264 266 266 263 261 260 263 269 277 289 300 304 312 325 335
226 226 219 207 194 187 184 176 173 182 192 200 211 218 218 219 220 223 226 228 232 238 242 249 255 258 261 263 264 263 260 258 258 261 266 274 285 293 298 308 323 336
223 221 213 199 188 183 180 178 181 189 197 206 213 215 215 216 220 224 229 233 239 244 250 254 257 259 262 262 262 260 257 256 257 260 264 272 281 285 290 303 322 337
218 215 204 192 186 182 180 183 190 197 204 210 212 213 213 216 222 228 233 239 244 249 253 256 258 259 261 261 260 256 254 253 254 256 260 269 275 277 281 298 319 335
213 208 198 190 188 186 184 188 194 201 209 211 212 214 216 220 227 233 238 244 248 252 255 257 259 260 260 259 256 253 251 250 250 253 257 264 268 268 272 287 307 326
209 205 198 192 191 190 190 192 195 202 212 215 216 219 222 228 235 240 244 248 252 255 257 258 259 259 258 257 253 250 248 246 246 248 252 258 261 259 262 270 284 308
209 205 200 198 197 195 195 196 198 205 215 219 220 222 226 233 240 245 250 254 257 258 258 258 258 258 258 255 251 247 244 243 244 244 247 253 253 251 250 250 258 278
211 207 204 203 203 201 202 203 204 210 218 222 224 225 230 237 244 251 256 258 260 261 259 259 259 258 256 252 247 243 240 240 240 240 244 247 246 244 239 235 243 252
212 210 208 208 209 210 211 211 212 216 221 224 226 229 234 242 250 256 260 261 262 261 259 258 258 255 251 246 241 238 236 236 236 237 240 242 239 236 229 227 235 238
213 213 212 211 213 216 218 219 220 222 225 227 231 235 240 247 253 257 260 262 262 260 259 257 254 251 247 242 237 233 231 231 232 234 238 238 233 227 221 224 230 231
215 216 217 216 218 221 222 223 225 227 229 232 235 239 244 249 253 256 259 262 261 260 258 255 253 251 247 241 236 232 228 226 229 233 237 236 229 221 218 222 225 226
217 218 219 220 222 224 225 227 229 230 233 235 238 241 246 249 252 255 259 261 261 259 257 256 253 249 244 238 233 229 225 222 226 232 235 233 226 220 220 222 222 225
220 220 221 222 224 226 228 229 230 232 235 237 240 243 246 248 252 255 258 260 260 260 259 257 252 247 241 235 230 227 222 218 222 229 232 231 227 223 222 222 222 224
223 223 225 226 227 227 229 230 232 234 236 238 241 243 246 249 252 254 257 258 258 259 259 255 251 247 241 234 228 224 219 216 219 225 229 231 230 226 223 222 223 225
226 226 227 229 229 229 230 232 233 235 237 239 242 245 247 250 252 255 257 256 256 259 259 254 251 247 241 236 231 222 214 214 219 222 228 232 229 225 223 222 223 225
228 229 230 231 231 232 234 235 236 236 238 241 244 246 248 250 251 253 253 254 257 259 254 250 249 244 238 239 238 227 215 216 221 224 230 232 227 223 223 223 223 226
230 230 232 233 234 235 236 237 238 239 240 241 244 246 247 248 248 249 250 252 253 251 246 245 243 238 236 239 237 228 219 219 224 227 230 228 224 222 223 223 225 226
232 232 233 234 236 237 238 239 240 242 242 242 244 246 246 246 245 243 244 245 243 242 243 243 240 237 238 238 233 224 219 223 228 231 229 226 224 223 224 225 226 227
Height
3139 3140 3141 3141 3142 3142 3142 3142 3143 3143 3144 3145 3147 3148 3150 3153 3154 3156 3157 3158 3159 3160 3160 3161 3161 3161 3161 3161 3162 3162 3162 3162 3162 3162 3162 3161 3161 3160 3159 3158 3157 3156
3138 3139 3139 3140 3140 3140 3140 3140 3141 3142 3143 3144 3145 3147 3149 3152 3153 3155 3156 3157 3158 3159 3159 3160 3160 3160 3160 3161 3161 3161 3161 3161 3161 3161 3160 3160 3159 3158 3158 3157 3156 3155
3136 3136 3137 3138 3138 3138 3138 3139 3140 3141 3142 3143 3145 3147 3149 3151 3153 3154 3155 3156 3157 3158 3158 3159 3159 3160 3160 3160 3160 3160 3160 3160 3160 3159 3159 3158 3158 3157 3156 3156 3155 3154
3134 3135 3135 3136 3136 3137 3137 3137 3138 3139 3141 3143 3145 3147 3149 3150 3151 3153 3154 3155 3156 3157 3157 3158 3158 3159 3159 3159 3159 3159 3159 3159 3158 3158 3157 3157 3156 3156 3155 3154 3153 3153
3133 3133 3133 3134 3134 3135 3135 3136 3137 3138 3140 3142 3144 3146 3148 3149 3151 3152 3153 3154 3155 3156 3156 3157 3157 3157 3158 3158 3158 3158 3158 3157 3157 3157 3156 3156 3155 3154 3154 3153 3152 3152
3131 3131 3132 3132 3133 3133 3134 3135 3136 3137 3139 3142 3143 3145 3147 3148 3150 3151 3153 3153 3154 3155 3155 3156 3156 3156 3157 3157 3157 3156 3156 3156 3156 3155 3155 3154 3154 3153 3152 3152 3151 3150
3129 3130 3130 3131 3131 3132 3133 3134 3135 3137 3139 3142 3143 3145 3147 3148 3149 3151 3151 3152 3153 3153 3154 3154 3155 3155 3155 3155 3155 3155 3155 3154 3154 3154 3153 3153 3152 3152 3151 3151 3150 3149
3127 3128 3129 3129 3130 3131 3132 3133 3134 3137 3139 3141 3143 3145 3146 3147 3148 3149 3150 3151 3152 3152 3153 3153 3153 3154 3154 3154 3154 3154 3153 3153 3153 3152 3152 3151 3151 3150 3150 3149 3149 3148
3125 3126 3127 3128 3129 3130 3131 3133 3134 3136 3138 3140 3142 3144 3145 3146 3147 3148 3149 3150 3151 3151 3151 3152 3152 3152 3152 3152 3152 3152 3152 3151 3151 3151 3150 3150 3149 3149 3149 3148 3147 3146
3124 3125 3125 3126 3128 3129 3131 3132 3134 3135 3138 3139 3141 3142 3144 3145 3146 3147 3148 3149 3149 3150 3150 3150 3150 3151 3151 3151 3151 3150 3150 3150 3149 3149 3149 3148 3148 3148 3148 3147 3146 3145
3122 3123 3124 3125 3127 3128 3130 3132 3133 3135 3137 3139 3140 3141 3142 3143 3144 3145 3146 3147 3147 3148 3148 3148 3149 3149 3149 3149 3149 3149 3148 3148 3148 3147 3147 3147 3147 3147 3146 3146 3145 3144
3121 3122 3123 3124 3126 3127 3129 3130 3132 3134 3136 3137 3139 3140 3141 3142 3143 3144 3144 3145 3145 3146 3146 3147 3147 3147 3147 3147 3147 3147 3147 3146 3146 3146 3146 3146 3146 3146 3145 3144 3143 3142
3119 3121 3122 3123 3124 3126 3128 3129 3131 3133 3134 3136 3138 3139 3139 3140 3141 3142 3142 3143 3144 3144 3144 3145 3145 3145 3145 3145 3145 3145 3145 3145 3145 3145 3145 3145 3145 3144 3143 3142 3142 3141
3118 3119 3121 3122 3123 3125 3126 3128 3130 3131 3133 3135 3136 3137 3138 3139 3140 3140 3141 3141 3142 3142 3142 3142 3143 3143 3143 3143 3143 3143 3143 3143 3143 3143 3143 3143 3143 3143 3142 3141 3140 3140
3117 3118 3119 3121 3122 3124 3125 3127 3129 3130 3132 3133 3134 3135 3136 3137 3138 3138 3139 3139 3139 3140 3140 3140 3141 3141 3141 3141 3141 3141 3141 3141 3142 3142 3142 3142 3142 3141 3140 3139 3139 3139
3116 3117 3118 3120 3121 3123 3124 3126 3127 3129 3130 3131 3133 3134 3135 3135 3136 3136 3137 3137 3137 3138 3138 3138 3138 3139 3139 3139 3139 3139 3139 3140 3140 3140 3140 3140 3140 3139 3139 3138 3138 3137
3115 3116 3117 3118 3120 3121 3123 3124 3126 3127 3128 3130 3131 3132 3133 3133 3134 3134 3135 3135 3135 3136 3136 3136 3136 3136 3137 3137 3137 3137 3137 3138 3138 3138 3138 3138 3138 3137 3137 3136 3136 3136
3113 3114 3115 3117 3118 3120 3121 3123 3124 3125 3126 3128 3129 3130 3130 3131 3132 3132 3133 3133 3133 3133 3133 3133 3134 3134 3134 3134 3135 3135 3135 3136 3136 3136 3137 3137 3136 3136 3135 3135 3135 3135
3111 3112 3114 3115 3116 3118 3119 3121 3122 3123 3124 3126 3127 3127 3128 3129 3129 3130 3130 3130 3131 3131 3131 3131 3131 3132 3132 3132 3133 3133 3133 3134 3134 3135 3135 3135 3134 3134 3133 3133 3133 3133
3109 3111 3112 3113 3115 3116 3117 3119 3120 3121 3122 3123 3124 3125 3126 3126 3127 3127 3128 3128 3128 3128 3128 3129 3129 3129 3130 3130 3130 3131 3131 3132 3132 3133 3133 3133 3132 3132 3132 3132 3132 3132
3108 3109 3111 3112 3113 3114 3116 3117 3118 3119 3120 3121 3122 3122 3123 3123 3124 3125 3125 3125 3125 3125 3126 3126 3126 3126 3127 3127 3127 3128 3129 3129 3130 3130 3131 3131 3131 3131 3130 3131 3131 3131
3106 3108 3109 3110 3112 3113 3114 3115 3116 3117 3118 3119 3119 3120 3120 3121 3121 3122 3122 3122 3122 3123 3123 3123 3123 3124 3124 3125 3124 3125 3126 3127 3128 3128 3129 3129 3129 3129 3129 3129 3129 3130
3105 3106 3108 3109 3110 3111 3112 3113 3114 3115 3116 3116 3116 3117 3118 3118 3118 3119 3119 3119 3119 3120 3121 3121 3121 3122 3122 3122 3122 3123 3124 3125 3125 3126 3127 3127 3127 3127 3127 3128 3128 3128
3103 3105 3106 3107 3108 3109 3110 3111 3112 3112 3113 3113 3114 3114 3114 3115 3115 3116 3116 3116 3117 3118 3119 3119 3119 3120 3121 3121 3121 3122 3123 3123 3123 3124 3124 3125 3125 3125 3126 3126 3126 3127
3101 3102 3104 3105 3106 3107 3108 3109 3109 3109 3110 3110 3110 3111 3111 3111 3112 3112 3113 3113 3114 3115 3116 3115 3116 3117 3118 3119 3119 3120 3121 3121 3121 3121 3122 3123 3123 3123 3124 3124 3125 3125
3099 3100 3102 3103 3104 3104 3105 3105 3106 3106 3106 3106 3107 3107 3106 3106 3107 3108 3109 3110 3111 3112 3112 3112 3113 3114 3115 3116 3116 3118 3119 3119 3118 3119 3120 3121 3121 3121 3122 3122 3123 3123